Vorticity
nan nan nan nan nan nan nan nan nan nan nan nan nan nan nan nan nan nan nan nan nan nan
nan 14 11 9 8 9 9 11 12 11 9 9 9 9 7 8 9 8 9 10 9 nan
nan 21 10 10 10 8 9 10 9 9 8 9 10 9 7 7 10 8 8 12 11 nan
nan 26 14 10 10 10 10 10 9 10 8 9 8 8 8 9 9 8 7 9 10 nan
nan 22 24 13 10 12 11 10 11 10 10 9 9 9 8 8 8 9 8 7 8 nan
nan 12 16 20 18 12 11 10 11 11 11 9 9 8 8 9 9 9 8 9 8 nan
nan 13 12 20 23 16 11 10 10 11 11 9 9 10 10 9 9 9 9 10 9 nan
nan 13 13 13 17 25 23 13 11 11 11 13 11 11 11 10 10 10 10 10 10 nan
nan 11 13 12 12 15 17 26 26 15 12 8 2 14 22 11 10 11 10 10 10 nan
nan 10 11 12 11 11 11 16 15 17 16 9 5 10 20 17 15 14 14 12 12 nan
nan 11 10 10 10 9 10 12 10 9 15 9 7 16 20 18 16 12 13 13 16 nan
nan 10 9 9 12 10 8 8 9 9 11 13 6 13 24 22 12 11 8 9 12 nan
nan 11 10 9 11 14 12 10 8 11 5 10 11 11 18 18 13 9 9 8 6 nan
nan nan nan nan nan nan nan nan nan nan nan nan nan nan nan nan nan nan nan nan nan nan
CAPE
0 735 535 541 253 54 93 104 55 27 15 4 0 0 0 0 0 0 0 0 0 0
0 63 394 278 150 120 87 88 27 41 12 0 0 0 0 0 0 0 1 4 0 0
0 1 501 150 87 87 91 73 22 48 0 0 0 0 0 0 0 0 4 4 0 0
2 1 338 206 43 45 29 7 4 28 0 0 0 0 0 0 0 1 2 2 1 0
3 2 163 134 16 0 0 0 7 19 4 1 0 0 0 0 0 0 1 1 1 0
3 5 3 3 4 0 0 0 0 5 1 0 0 0 1 0 0 0 1 1 2 1
4 6 3 4 1 0 0 0 1 10 8 4 0 0 1 1 1 1 2 3 2 0
4 4 3 5 3 5 0 0 0 0 1 0 3 5 1 1 1 1 1 0 0 1
4 3 4 2 2 2 2 4 1 0 0 0 0 1 1 8 1 1 0 0 1 0
4 3 3 3 1 1 2 4 2 4 3 3 0 0 0 1 1 1 0 0 1 0
2 3 2 1 2 2 2 0 1 1 5 3 1 2 0 0 0 0 0 0 0 0
3 1 1 2 1 1 0 0 0 0 0 1 2 0 0 0 0 0 0 0 0 0
3 3 1 1 1 0 0 0 0 0 0 1 0 1 1 0 0 0 0 0 0 0
1 2 2 2 1 0 1 1 0 0 0 0 0 0 3 1 0 0 0 0 0 0